FW1746 Weather Reports


Display with metric or nautical units.
time (UTC)temp
F
wind
direction
speed
MPH
gust
MPH
rain 1hr
in
rain 24hr
in
rain mn
in
humidity
%
barometer
mb
20260503044611 44 168 0.0 2.0 0.00 0.05 0.05 97 1009.3
20260503043057 44 168 0.0 1.0 0.01 0.05 0.05 97 1009.3
20260503041610 44 166 0.0 0.0 0.01 0.05 0.05 97 1009.2
20260503040053 44 182 0.0 2.0 0.01 0.05 0.05 96 1009.3
20260503034551 44 167 1.0 2.0 0.01 0.05 0.05 97 1009.5
20260503033103 44 167 0.0 2.0 0.00 0.04 0.04 96 1009.4
20260503031547 45 184 1.0 2.0 0.00 0.04 0.04 96 1009.5
20260503030043 45 182 1.0 2.0 0.00 0.04 0.04 96 1009.5
20260503024512 45 166 0.0 2.0 0.00 0.04 0.04 96 1009.4
20260503023011 45 169 0.0 1.0 0.00 0.04 0.04 96 1009.4
20260503021515 46 169 0.0 2.0 0.00 0.04 0.04 96 1009.3
20260503020111 46 169 0.0 2.0 0.00 0.04 0.04 96 1009.3
20260503014551 46 182 0.0 2.0 0.00 0.04 0.04 96 1009.4
20260503013047 46 182 0.0 1.0 0.00 0.04 0.04 96 1009.3
20260503011551 46 192 0.0 2.0 0.00 0.04 0.04 95 1009.3
20260503010045 47 186 0.0 1.0 0.00 0.04 0.04 95 1009.3
20260503004551 47 186 1.0 3.0 0.00 0.04 0.04 95 1009.5
20260503003055 47 180 0.0 3.0 0.00 0.04 0.04 95 1009.7
20260503001550 47 181 0.0 2.0 0.00 0.04 0.04 95 1009.5
20260503000047 48 186 0.0 3.0 0.00 0.04 0.04 95 1009.7
20260502234537 48 182 1.0 3.0 0.00 0.04 0.04 94 1009.5
20260502233028 49 198 0.0 2.0 0.00 0.04 0.04 94 1009.6
20260502231526 49 198 0.0 1.0 0.00 0.04 0.04 94 1009.7
20260502230024 50 178 0.0 3.0 0.00 0.04 0.04 94 1010.0
20260502224522 50 184 0.0 3.0 0.00 0.04 0.04 95 1009.9
20260502223021 50 186 1.0 3.0 0.00 0.04 0.04 95 1009.8
20260502221520 50 186 0.0 3.0 0.00 0.04 0.04 94 1009.9
20260502220024 50 180 0.0 2.0 0.00 0.04 0.04 94 1009.9
20260502214516 50 178 0.0 1.0 0.00 0.04 0.04 94 1009.9
20260502213026 51 180 0.0 2.0 0.00 0.04 0.04 94 1010.0
20260502211512 51 165 0.0 2.0 0.00 0.04 0.04 94 1010.1
20260502210011 50 165 0.0 2.0 0.00 0.04 0.04 94 1010.5
20260502204515 50 188 0.0 2.0 0.00 0.04 0.04 94 1010.5
20260502203013 51 159 0.0 3.0 0.00 0.04 0.04 94 1010.5
20260502201513 50 196 0.0 3.0 0.00 0.04 0.04 94 1010.5
20260502200012 50 207 0.0 2.0 0.00 0.04 0.04 94 1010.4
20260502194509 50 199 0.0 5.0 0.00 0.04 0.04 93 1010.3
20260502193008 50 202 0.0 5.0 0.00 0.04 0.04 94 1010.3
20260502191507 50 212 1.0 5.0 0.00 0.04 0.04 93 1010.2
20260502190005 51 159 2.0 6.0 0.00 0.04 0.04 93 1010.3
20260502184506 51 169 2.0 8.0 0.00 0.04 0.04 93 1010.2
20260502183004 51 167 1.0 5.0 0.00 0.04 0.04 93 1010.1
20260502181605 51 169 0.0 5.0 0.00 0.04 0.04 93 1010.2
20260502180114 51 192 0.0 3.0 0.00 0.04 0.04 93 1010.3
20260502163009 52 138 1.0 3.0 0.04 0.04 0.04 87 1010.3
20260502161504 53 195 0.0 2.0 0.03 0.03 0.03 87 1010.7
20260502151528 58 175 5.0 10.0 0.00 0.00 0.00 70 1011.3
20260502123010 58 161 4.0 8.0 0.00 0.00 0.00 75 1012.4
20260502121509 59 151 5.0 8.0 0.00 0.00 0.00 76 1012.6
20260502114555 59 168 5.0 8.0 0.00 0.00 0.00 77 1012.7
20260502113054 58 135 5.0 9.0 0.00 0.00 0.00 77 1012.7
20260502110047 57 148 4.0 7.0 0.00 0.00 0.00 79 1012.9
20260502104545 56 173 3.0 6.0 0.00 0.00 0.00 81 1013.1
20260502103044 55 140 3.0 7.0 0.00 0.00 0.00 80 1013.3
20260502101546 55 142 2.0 5.0 0.00 0.00 0.00 79 1013.4
20260502070050 49 257 1.0 2.0 0.00 0.00 0.00 82 1014.6
20260502064546 48 260 0.0 2.0 0.00 0.00 0.00 85 1014.6
20260502063042 46 257 0.0 0.0 0.00 0.00 0.00 88 1014.7
20260502061534 45 279 0.0 1.0 0.00 0.00 0.00 92 1014.7
20260502060033 44 259 0.0 0.0 0.00 0.00 0.00 94 1014.9
20260502054532 43 258 0.0 0.0 0.00 0.00 0.00 93 1015.0
20260502053031 42 259 0.0 1.0 0.00 0.00 0.00 94 1015.1
20260502051530 41 257 0.0 2.0 0.00 0.00 0.00 94 1015.1